This is the latest recevied weather packets stored in our database for station/object N3LF. If no packets are shown the sender has not sent any weather packets the latest 10 day(s).
| Time | Temp. | Humidity | Pressure | Rain* | Wind** | Luminosity | Snow |
|---|---|---|---|---|---|---|---|
| 1788443283 | 28.33° C | 87% | 1020.2 hPa | 0 mm | - | 263 W/m² | - |
| 1788442979 | 27.78° C | 89% | 1020.3 hPa | 0 mm | - | 248 W/m² | - |
| 1788442676 | 27.78° C | 89% | 1020.3 hPa | 0 mm | - | 245 W/m² | - |
| 1788442372 | 28.89° C | 85% | 1020.5 hPa | 0 mm | - | 230 W/m² | - |
| 1788442072 | 27.78° C | 89% | 1020.3 hPa | 0 mm | - | 216 W/m² | - |
| 1788441767 | 27.22° C | 92% | 1020.4 hPa | 0 mm | - | 192 W/m² | - |
| 1788441462 | 26.67° C | 93% | 1020.5 hPa | 0 mm | - | 152 W/m² | - |
| 1788441162 | 26.11° C | 95% | 1020.5 hPa | 0 mm | - | 128 W/m² | - |
| 1788440857 | 25.56° C | 98% | 1020.5 hPa | 0 mm | - | 111 W/m² | - |
| 1788440552 | 25° C | 99% | 1020.3 hPa | 0 mm | - | 99 W/m² | - |
| 1788440250 | 25° C | 99% | 1020.3 hPa | 0 mm | - | 90 W/m² | - |
| 1788439945 | 24.44° C | 99% | 1020.4 hPa | 0 mm | - | 82 W/m² | - |
| 1788439644 | 24.44° C | 99% | 1020.4 hPa | 0 mm | - | 75 W/m² | - |
| 1788439340 | 23.89° C | 99% | 1020.3 hPa | 0 mm | - | 69 W/m² | - |
| 1788439038 | 23.33° C | 99% | 1020.5 hPa | 0 mm | - | 63 W/m² | - |
| 1788438737 | 23.33° C | 99% | 1020.5 hPa | 0 mm | - | 58 W/m² | - |
| 1788438432 | 22.78° C | 99% | 1020.3 hPa | 0 mm | - | 53 W/m² | - |
| 1788438127 | 23.33° C | 99% | 1020.4 hPa | 0 mm | - | 48 W/m² | - |
| 1788437825 | 22.78° C | 99% | 1020.5 hPa | 0 mm | - | 43 W/m² | - |
| 1788437521 | 22.78° C | 99% | 1020.2 hPa | 0 mm | - | 39 W/m² | - |
| 1788437221 | 22.78° C | 99% | 1020.2 hPa | 0 mm | - | 34 W/m² | - |
| 1788436915 | 22.22° C | 99% | 1020.1 hPa | 0 mm | - | 28 W/m² | - |
| 1788436613 | 22.22° C | 99% | 1020.1 hPa | 0 mm | - | 24 W/m² | - |
| 1788436309 | 22.22° C | 99% | 1020.1 hPa | 0 mm | - | 20 W/m² | - |
| 1788436008 | 22.22° C | 99% | 1020.1 hPa | 0 mm | - | 17 W/m² | - |
* Rain latest hour (hover to see other rain measurements)
** Current wind speed in m/s (hover to see current wind gust speed)